Back to catalog

COSMOS 1929

AliveMilitaryLEO
NORAD 18942·PAYLOAD·🇷🇺 Russia

Launched Mar 11, 1988 from Plesetsk Cosmodrome

Loading…

Next Passes (next 24 hours)

TLE

FreshSource: Space-Track

Epoch: Sep 14, 2026, 05:57 UTC

1 18942U 88016F   26257.24798623 -.00000014  00000-0  16194-4 0  9991
2 18942  74.0086  16.7159 0020152  24.5553 347.6581 12.54809819764068

Track COSMOS 1929 in real time with AllMySat

Download on the App Store